www.pogodaiklimat.ru

Погода и климат >> Архив погоды >> Аргентина >> San Miguel de Tucuman


ПОГОДА в San Miguel de Tucuman

  • Прогноз погоды в San Miguel de Tucuman
  • Монитор погоды в San Miguel de Tucuman
  • Климат города

АРХИВ ПОГОДЫ в San Miguel de Tucuman

Время (UTC), дата Ветер
(напр.,м/с)
 
Видим.   Явления Облачность Т
(С)
Тd
(С)
f
(%)
Тe
(С)
Тes
(С)
Комфортность P
(гПа)
Po
(гПа)
Тmin
(С)
Tmax
(С)
R
(мм)
S
(см)
03 16.03 СЗ 7 8000 м слабый дождь 10/4 1050 м
[Sc As op]
+20.6 +18.4 87 +24 +24 комфорт 1013.9 963.4
06 16.03 СЗ 4 10 км {дождь} 9/4 1200 м
[Sc Ac As]
+20.3 +17.1 82 +24 +24 комфорт 1013.8 963.6 1
09 16.03 СЗ 2 9000 м в посл. час гроза {дождь} туман 10/5 210 м
[Frnb As op]
+19.4 +18.3 93 +22 +22 комфорт 1016.6 966.0
12 16.03 В 3 1800 м дождь {гроза} 10/6 450 м
[Frnb As op]
+19.6 +18.4 93 +22 +23 комфорт 1021.0 969.7 +19.2 +22.2 7
15 16.03 Ю 3 6000 м слабый дождь 10/5 360 м
[Frnb Ac As]
+18.4 +17.1 92 +19 +21 1023.4 971.8
18 16.03 штиль 0 12 км {дождь} 9/3 1050 м
[Sc Ac As]
+21.0 +12.6 59 +23 +29 комфорт 1021.1 969.8 11
21 16.03 штиль 0 15 км 9/0
[Ac As]
+21.0 +14.0 64 +24 +25 комфорт 1019.2 967.8
00 17.03 штиль 0 15 км 9/0
[Ac As]
+19.4 +15.5 78 +21 +21 комфорт 1020.6 969.0 +18.0 +22.0
03 17.03 С 2 12 км 9/0
[Ac As Cs]
+18.4 +15.6 84 +19 +19 1022.1 970.4
06 17.03 штиль 0 8000 м дымка 8/3 600 м
[Sc Ac trans Cs]
+17.0 +15.8 93 +17 +17 1021.6 970.0
09 17.03 СВ 3 8000 м дымка 9/8 750 м
[Sc Ac As Cs]
+15.9 +13.7 87 +15 +15 1021.4 969.7
12 17.03 СВ 4 12 км 8/6 750 м
[Sc Ac As]
+16.6 +11.4 71 +16 +16 1022.8 971.0 +15.7 +19.4 11
15 17.03 В 3 12 км 10/8 900 м
[Sc Ac As]
+19.3 +12.6 65 +21 +22 комфорт 1022.9 971.2
18 17.03 Ю 3 12 км 9/9 900 м
[Cu Sc]
+20.5 +14.5 68 +23 +25 комфорт 1021.0 969.4
21 17.03 В 2 12 км 5/5 600 м
[Cu hum]
+22.2 +14.6 62 +26 +27 душно 1018.7 967.3
00 18.03 Ю 2 12 км 5/5 1050 м
[Sc]
+18.8 +15.2 80 +20 +20 1019.0 967.3 +16.6 +23.0
03 18.03 СВ 2 10 км 4/3 1200 м
[Sc Ac trans]
+18.2 +15.6 85 +19 +19 1019.7 968.2
06 18.03 СЗ 3 10 км ясно +14.4 +12.8 90 +14 +14 1019.2 967.4
09 18.03 СЗ 4 9000 м дымка туман ясно +14.4 +12.3 87 +13 +13 1018.8 967.2
12 18.03 СЗ 3 12 км ясно +17.0 +14.1 83 +17 +19 1020.0 968.2 +13.4 +18.8
15 18.03 ЮВ 3 12 км 3/3 1050 м
[Cu hum]
+22.5 +14.8 62 +26 +35 жарко 1019.4 968.1
18 18.03 СВ 4 15 км 4/4 1050 м
[Cu hum]
+24.9 +14.5 52 +27 +34 жарко 1017.2 965.8
21 18.03 СВ 6 15 км 5/5 1050 м
[Sc]
+23.8 +14.5 56 +26 +27 жарко 1016.3 965.0
00 19.03 Ю 3 10 км 8/1 1200 м
[Sc Ac trans]
+20.4 +16.9 80 +24 +24 комфорт 1017.4 966.0 +17.0 +25.6
03 19.03 СЗ 2 8000 м дым ясно +18.0 +15.4 85 +19 +19 1017.4 966.2
06 19.03 СЗ 3 8000 м дым ясно +14.6 +12.5 87 +14 +14 1016.3 965.0
09 19.03 СЗ 2 8000 м дым ясно +14.2 +12.1 87 +14 +14 1016.5 965.0
12 19.03 СЗ 2 12 км ясно +17.4 +13.8 79 +18 +21 1018.0 966.6 +14.0 +20.4
15 19.03 штиль 0 12 км 1/1 1050 м
[Cu hum]
+22.6 +14.2 59 +26 +45 жарко 1017.5 966.2
18 19.03 ЮВ 4 12 км 5/5 1050 м
[Cu hum]
+25.5 +15.8 55 +29 +33 душно 1015.1 964.0
21 19.03 ЮВ 2 10 км 8/8 1350 м
[Sc diur, vesp]
+25.4 +16.2 57 +29 +29 душно 1014.5 963.4
00 20.03 Ю 3 9000 м дым 8/3 1200 м
[Sc Ac trans]
+20.0 +16.5 80 +23 +23 комфорт 1016.4 965.0 +17.4 +27.1
03 20.03 С 2 8000 м 3/1 1200 м
[Sc Ac trans]
+18.3 +15.8 85 +19 +19 1016.7 965.6
06 20.03 С 2 7000 м ясно +16.0 +14.1 88 +16 +16 1015.9 964.9
09 20.03 СЗ 2 6000 м дымка туман 5/3 1200 м
[Sc Ac trans]
+16.4 +14.7 90 +16 +16 1016.2 965.2
12 20.03 штиль 0 9000 м дымка 6/0
[Ac und]
+19.6 +16.7 83 +22 +24 комфорт 1017.8 966.5 +15.3 +20.0
15 20.03 Ю 3 12 км 4/1 750 м
[Cu hum Ac trans]
+24.5 +17.2 64 +28 +38 душно 1017.7 966.6
18 20.03 Ю 3 12 км 9/4 1050 м
[Cu hum Ac As]
+24.1 +17.2 65 +28 +31 душно 1015.8 964.6
21 20.03 Ю 3 6000 м осадки на расстоянии {дождь} 9/4 900 м
[Sc diur, vesp Ac As]
+21.2 +18.2 83 +25 +26 комфорт 1016.3 964.9
00 21.03 Ю 3 6000 м дымка {дождь} туман 10/4 1050 м
[Sc Ac As]
+19.8 +17.3 86 +23 +23 комфорт 1017.9 966.6 +19.6 +25.4 0.0
03 21.03 З 2 8000 м дымка 9/9 1200 м
[Sc]
+19.2 +17.0 87 +21 +21 комфорт 1018.0 967.0
06 21.03 В 2 12 км 10/10 900 м
[Sc]
+19.4 +17.5 89 +22 +22 комфорт 1017.6 966.6
09 21.03 В 2 12 км 10/10 1200 м
[Sc]
+18.4 +17.1 92 +20 +20 1017.4 966.2
12 21.03 ЮЗ 1 8000 м дымка туман 10/9 540 м
[Sc Ac As]
+18.8 +17.5 92 +21 +21 комфорт 1018.7 967.3 +18.2 +19.8 0.0
15 21.03 ЮЗ 3 10 км 9/8 750 м
[Cu hum Ac As]
+23.1 +18.0 73 +29 +31 очень
душно
1018.1 967.0
18 21.03 Ю 3 10 км 10/8 750 м
[Cu hum Ac As]
+21.6 +17.5 77 +26 +27 душно 1016.5 965.4
21 21.03 Ю 2 6000 м дымка {морось} 10/6 450 м
[Frnb As op]
+21.4 +18.0 81 +26 +26 душно 1015.7 964.6
00 22.03 штиль 0 6000 м в посл. час морось туман 10/8 360 м
[Frnb As op]
+19.2 +17.9 92 +21 +21 комфорт 1017.8 966.4 +18.8 +23.3 0.2
03 22.03 Ю 1 6000 м дымка 10/8 360 м
[Frnb As op]
+18.6 +17.8 95 +21 +21 комфорт 1018.1 967.0
06 22.03 штиль 0 5000 м дымка 10/8 360 м
[St As op]
+18.4 +17.6 95 +19 +19 1016.8 965.6 0.1
09 22.03 СЗ 1 5000 м дымка 9/3 900 м
[Sc Ac As]
+17.8 +17.2 96 +19 +19 1016.7 965.4
12 22.03 штиль 0 7000 м дымка 9/9 1200 м
[Sc]
+18.8 +17.9 95 +20 +20 1018.0 966.6 +17.5 +19.2 0.3
18 22.03 В 2 12 км 9/6 900 м
[Cu hum Ac trans]
+25.4 +18.0 64 +30 +33 душно 1014.9 964.1
21 22.03 Ю 2 12 км 9/9 600 м
[Cu Sc]
+25.2 +17.8 64 +30 +30 душно 1013.8 963.0

 

Местоположение метеостанции San Miguel de Tucuman (Аргентина): широта -26.85 долгота -65.09 высота над уровнем моря 450 м.

В архиве по умолчанию представлена погода в San Miguel de Tucuman за последнюю неделю. Архивные данные за месяц целиком и за предыдущие месяцы, начиная с января 2011 года, Вы можете получить, выбрав интересующий диапазон дат из раскрывающегося списка и нажав кнопку "Ввод!".

Внимание! Время в таблицах - всемирное. Для получения местного времени необходимо прибавить поправку, которая в San Miguel de Tucuman равна -3 ч.

Смотрите также архив погоды в соседних городах и на ближайших метеорологических станциях:

Погода в Santiago del Estero (Аргентина) (128 км)
Погода в San Fernando del Valle de Catamarca (Аргентина) (206 км)
Погода в Salta (Аргентина) (226 км)
Погода в San Salvador de Jujuy (Аргентина) (275 км)
Погода в La Rioja (Аргентина) (328 км)
Погода в Villa de Maria del Rio Seco (Аргентина) (366 км)
Погода в Chamical (Аргентина) (407 км)
Погода в San Ramon de la Nueva Oran (Аргентина) (419 км)
Погода в Ceres (Аргентина) (456 км)
Погода в Presidencia Roque Saenz Pena (Аргентина) (458 км)

Пояснения к столбцам:

Ветер - указаны скорость ветра в м/с - средняя за 10 мин, порывы в срок и между сроками (в фигурных скобках) и направление, откуда дует ветер: С - северный, СВ - северо-восточный, В - восточный, ЮВ - юго-восточный, Ю - южный, ЮЗ - юго-западный, З - западный, СЗ - северо-западный.
Видимость - горизонтальная дальность видимости в метрах или километрах. При видимости от 1 до 10 км при отсутствии осадков обычно наблюдается дымка, при ухудшении видимости до 1 км и менее - туман. В сухую погоду видимость может ухудшаться дымом, пылью или мглою.
Явления - указаны атмосферные явления, наблюдавшиеся в срок или в последний час перед сроком; фигурными скобками обозначены явления, наблюдавшиеся между сроками (за 1-3 часа до срока); квадратными скобками обозначены град или гололедные отложения с указанием их диаметра в мм.
Облачность - указаны через наклонную черту общая и нижняя облачность в баллах и высота нижней границы облаков в метрах; квадратными скобками обозначены формы облаков: Ci - перистые, Cs - перисто-слоистые, Cc - перисто-кучевые, Ac - высококучевые, As - высокослоистые, Sc - слоисто-кучевые, Ns - слоисто-дождевые, Cu - кучевые, Cb - кучево-дождевые. Подробнее классификацию облаков см. в Атласе облаков (PDF).
T - Температура воздуха - температура, измеренная на высоте 2 м над землей.
Td - Температура точки росы - температура, при понижении до которой содержащийся в воздухе водяной пар достигнет насыщения.
f - Относительная влажность воздуха - влажноcть воздуха, измеренная на высоте 2 м над землей.
Te - Эффективная температура - температура, которую ощущает одетый по сезону человек в тени. Характеристика душности погоды. При расчете учитывается влияние влажности воздуха и скорости ветра на теплоощущения человека.
Tes - Эффективная температура на солнце - температура, которую ощущает человек, с поправкой на солнечный нагрев. Характеристика знойности погоды. Зависит от высоты солнца над горизонтом, облачности и скорости ветра. Ночью, в пасмурную погоду, а также при ветре 12 м/с и более поправка равна нулю.
P - Атмосферное давление - приведенное к уровню моря атмосферное давление.
Po - Атмосферное давление - измеренное на уровне метеостанции атмосферное давление.
Tmin - Минимальная температура - минимум температуры воздуха на высоте 2 м над землей.
Tmax - Максимальная температура - максимум температуры воздуха на высоте 2 м над землей.
R - Количество осадков - Количество выпавших осадков, мм. При наведении курсора мыши на число - период времени, за который выпало указанное количество осадков.
S - Снежный покров - Высота снежного покрова, см. При наведении курсора мыши на число - состояние снежного покрова и степень покрытия местности в баллах.